Limon, CO

6:59 AM MST on December 11, 2016 (GMT -0700)
Limon Municipal

Weather History for KLIC - April, 2013

Change the Weather History Date:

Saturday, April 6, 2013

  Actual Average Record
Temperature  
Mean Temperature 49 °F -  
Max Temperature 63 °F - 75 °F (2015)
Min Temperature 34 °F - 9 °F (1997)
Degree Days  
Heating Degree Days 16    
Month to date heating degree days 138  
Cooling Degree Days 0    
Month to date cooling degree days 0  
Moisture  
Dew Point 24 °F    
Average Humidity 43    
Maximum Humidity 70    
Minimum Humidity 16    
Precipitation  
Precipitation 0.00 in - 0.31 in (1998)
Month to date precipitation 0.00  
Year to date precipitation 2.10  
Sea Level Pressure  
Sea Level Pressure 29.80 in    
Wind  
Wind Speed 11 mph (North)    
Max Wind Speed 25 mph    
Max Gust Speed 32 mph    
Visibility 10 miles    
Events      
T = Trace of Precipitation, MM = Missing Value Source: NWS Daily Summary

Daily Weather History Graph

Daily Weather History Graph

Search for Another Location

Airport or City:

Trip Planner

Search our weather history database for the weather conditions in past years. The results will help you decide how hot, cold, wet, or windy it might be!

Date:

Astronomy

Apr. 06, 2013 Rise Set
Actual Time 6:30 AM MDT 7:23 PM MDT
Civil Twilight 6:03 AM MDT 7:50 PM MDT
Nautical Twilight 5:31 AM MDT 8:23 PM MDT
Astronomical Twilight 4:57 AM MDT 8:56 PM MDT
Moon 4:14 AM MDT (4/6) 3:56 PM MDT (4/6)
Length of Visible Light 13h 47m
Length of Day
12h 52m
Waning Crescent, 14% of the Moon is Illuminated
Apr 6
Waning Crescent
Apr 10
New
Apr 18
First Quarter
Apr 25
Full
May 2
Last Quarter

Hourly Weather History & Observations

Time (MDT) Temp. Windchill Dew Point Humidity Pressure Visibility Wind Dir Wind Speed Gust Speed Precip Events Conditions
12:55 AM 46.9 °F - 34.0 °F 61% 29.71 in 10.0 mi NW 12.7 mph - N/A   Clear
1:55 AM 48.0 °F - 30.0 °F 50% 29.71 in 10.0 mi North 16.1 mph - N/A   Clear
2:55 AM 44.1 °F 37.4 °F 30.9 °F 60% 29.73 in 10.0 mi NNW 13.8 mph - N/A   Clear
3:55 AM 43.0 °F 36.4 °F 28.9 °F 58% 29.75 in 10.0 mi NNW 12.7 mph - N/A   Clear
4:55 AM 37.0 °F 29.8 °F 28.0 °F 70% 29.80 in 10.0 mi West 10.4 mph - N/A   Clear
5:55 AM 35.1 °F 28.6 °F 26.1 °F 70% 29.82 in 10.0 mi NW 8.1 mph - N/A   Clear
6:55 AM 39.9 °F 33.9 °F 24.1 °F 53% 29.81 in 10.0 mi NNW 9.2 mph - N/A   Clear
7:55 AM 46.9 °F - 23.0 °F 39% 29.84 in 10.0 mi NNW 15.0 mph - N/A   Clear
8:55 AM 51.1 °F - 21.9 °F 32% 29.81 in 10.0 mi NNW 21.9 mph 32.2 mph N/A   Clear
9:55 AM 52.0 °F - 21.9 °F 31% 29.82 in 10.0 mi North 13.8 mph 28.8 mph N/A   Clear
10:55 AM 55.9 °F - 23.0 °F 28% 29.84 in 10.0 mi North 8.1 mph 18.4 mph N/A   Clear
11:55 AM 55.0 °F - 19.9 °F 25% 29.86 in 10.0 mi West 9.2 mph 17.3 mph N/A   Clear
12:55 PM 59.0 °F - 19.0 °F 21% 29.82 in 10.0 mi Variable 6.9 mph 18.4 mph N/A   Clear
1:55 PM 60.1 °F - 17.1 °F 19% 29.81 in 10.0 mi Variable 5.8 mph - N/A   Clear
2:55 PM 62.1 °F - 17.1 °F 18% 29.80 in 10.0 mi Variable 3.5 mph - N/A   Clear
3:55 PM 63.0 °F - 16.0 °F 16% 29.77 in 10.0 mi Variable 4.6 mph - N/A   Clear
4:55 PM 61.0 °F - 16.0 °F 17% 29.79 in 10.0 mi South 5.8 mph - N/A   Mostly Cloudy
5:55 PM 61.0 °F - 17.1 °F 18% 29.79 in 10.0 mi SE 6.9 mph - N/A   Mostly Cloudy
6:55 PM 57.9 °F - 19.0 °F 22% 29.79 in 10.0 mi SE 6.9 mph - N/A   Overcast
7:55 PM 53.1 °F - 23.0 °F 31% 29.78 in 10.0 mi ESE 5.8 mph - N/A   Overcast
8:55 PM 53.1 °F - 21.9 °F 30% 29.81 in 10.0 mi North 8.1 mph - N/A   Overcast
9:55 PM 53.1 °F - 26.1 °F 35% 29.84 in 10.0 mi SSE 10.4 mph 19.6 mph N/A   Overcast
10:55 PM 51.1 °F - 28.9 °F 43% 29.83 in 10.0 mi SSE 12.7 mph - N/A   Overcast
11:55 PM 45.0 °F 37.9 °F 35.1 °F 68% 29.82 in 10.0 mi SE 16.1 mph - N/A   Clear